Radiation Dose at Monitoring Post of Fukushima Daini Nuclear Power Station
Date,Time,MP-1(microSv/h),MP-2(microSv/h),MP-3(microSv/h),MP-4(microSv/h),MP-5(microSv/h),MP-6(microSv/h),MP-7(microSv/h),Wind Direction,Wind Velocity(m/s),Rain
2017/03/14,00:00,0.398,0.245,0.409,0.379,0.336,0.199,0.169,northwest,0.6,No
2017/03/14,00:10,0.397,0.248,0.409,0.378,0.340,0.198,0.170,north,0.8,No
2017/03/14,00:20,0.398,0.247,0.411,0.377,0.337,0.198,0.169,north-northwest,1.3,No
2017/03/14,00:30,0.398,0.246,0.408,0.379,0.336,0.197,0.170,north,0.7,No
2017/03/14,00:40,0.396,0.247,0.409,0.378,0.338,0.198,0.169,north-northwest,0.8,Yes
2017/03/14,00:50,0.399,0.247,0.409,0.377,0.337,0.200,0.169,northwest,0.8,No
2017/03/14,01:00,0.397,0.247,0.410,0.379,0.337,0.198,0.168,north,2.5,Yes
2017/03/14,01:10,0.397,0.247,0.409,0.377,0.338,0.198,0.169,north,3.0,Yes
2017/03/14,01:20,0.398,0.248,0.409,0.376,0.338,0.198,0.168,north,3.0,Yes
2017/03/14,01:30,0.398,0.247,0.410,0.379,0.337,0.199,0.169,north-northwest,3.5,No
2017/03/14,01:40,0.398,0.247,0.409,0.378,0.338,0.198,0.168,north,4.0,Yes
2017/03/14,01:50,0.398,0.247,0.409,0.378,0.337,0.199,0.170,north-northwest,4.2,Yes
2017/03/14,02:00,0.399,0.247,0.409,0.379,0.337,0.198,0.170,north-northwest,4.2,Yes
2017/03/14,02:10,0.398,0.247,0.410,0.379,0.338,0.196,0.170,north-northwest,4.3,No
2017/03/14,02:20,0.399,0.246,0.408,0.378,0.339,0.199,0.168,north-northwest,4.2,Yes
2017/03/14,02:30,0.399,0.248,0.409,0.378,0.337,0.198,0.168,north,4.3,Yes
2017/03/14,02:40,0.397,0.246,0.411,0.378,0.337,0.199,0.169,north,4.1,Yes
2017/03/14,02:50,0.397,0.247,0.409,0.378,0.337,0.200,0.169,north,4.0,No
2017/03/14,03:00,0.399,0.248,0.409,0.378,0.336,0.199,0.169,north,4.0,Yes
2017/03/14,03:10,0.398,0.248,0.409,0.378,0.336,0.200,0.170,north,3.9,Yes
2017/03/14,03:20,0.397,0.248,0.409,0.378,0.337,0.198,0.169,north-northwest,3.7,Yes
2017/03/14,03:30,0.398,0.247,0.407,0.376,0.337,0.197,0.170,north,4.5,No
2017/03/14,03:40,0.398,0.246,0.409,0.378,0.336,0.198,0.169,north-northwest,4.3,Yes
2017/03/14,03:50,0.397,0.247,0.409,0.378,0.335,0.198,0.168,north-northwest,4.2,Yes
2017/03/14,04:00,0.398,0.246,0.409,0.377,0.336,0.197,0.168,north-northwest,4.3,Yes
2017/03/14,04:10,0.398,0.247,0.407,0.376,0.336,0.198,0.169,north,4.3,Yes
2017/03/14,04:20,0.397,0.247,0.408,0.377,0.337,0.199,0.169,north,4.5,Yes
2017/03/14,04:30,0.396,0.247,0.410,0.377,0.336,0.198,0.168,north,4.6,No
2017/03/14,04:40,0.397,0.247,0.407,0.376,0.337,0.198,0.167,north,4.8,Yes
2017/03/14,04:50,0.397,0.246,0.408,0.377,0.336,0.198,0.169,north,5.2,Yes
2017/03/14,05:00,0.396,0.246,0.411,0.375,0.337,0.197,0.169,north,5.5,Yes
2017/03/14,05:10,0.397,0.247,0.408,0.379,0.336,0.197,0.169,north-northwest,5.4,Yes
2017/03/14,05:20,0.397,0.246,0.409,0.378,0.335,0.198,0.169,north,5.0,Yes
2017/03/14,05:30,0.396,0.247,0.408,0.377,0.335,0.198,0.169,north,4.5,Yes
2017/03/14,05:40,0.396,0.247,0.409,0.376,0.337,0.197,0.169,north,4.8,Yes
2017/03/14,05:50,0.397,0.248,0.408,0.378,0.336,0.199,0.169,north,4.3,Yes
2017/03/14,06:00,0.397,0.247,0.409,0.376,0.335,0.198,0.169,north-northwest,3.5,Yes
2017/03/14,06:10,0.397,0.245,0.406,0.375,0.335,0.198,0.169,north,3.6,Yes
2017/03/14,06:20,0.396,0.247,0.406,0.375,0.336,0.199,0.170,north,3.3,Yes
2017/03/14,06:30,0.397,0.246,0.405,0.376,0.334,0.199,0.169,north,3.0,Yes
2017/03/14,06:40,0.395,0.246,0.406,0.373,0.332,0.198,0.168,north,3.2,Yes
2017/03/14,06:50,0.394,0.246,0.403,0.372,0.336,0.197,0.169,north-northeast,2.3,Yes
2017/03/14,07:00,0.394,0.247,0.403,0.372,0.333,0.198,0.169,north-northeast,2.6,Yes
2017/03/14,07:10,0.393,0.245,0.402,0.371,0.334,0.196,0.169,east-northeast,2.1,Yes
2017/03/14,07:20,0.392,0.245,0.402,0.370,0.335,0.197,0.169,northeast,2.1,Yes
2017/03/14,07:30,0.395,0.245,0.402,0.372,0.335,0.197,0.167,-,CALM,Yes
2017/03/14,07:40,0.391,0.245,0.402,0.370,0.332,0.197,0.167,east-northeast,0.7,Yes
2017/03/14,07:50,0.391,0.245,0.403,0.370,0.333,0.196,0.167,east,1.5,Yes
2017/03/14,08:00,0.393,0.243,0.401,0.371,0.333,0.195,0.167,east-southeast,5.6,Yes
2017/03/14,08:10,0.389,0.244,0.400,0.370,0.330,0.195,0.166,east,5.8,Yes
2017/03/14,08:20,0.391,0.243,0.400,0.367,0.332,0.195,0.165,east,6.1,Yes
2017/03/14,08:30,0.390,0.242,0.399,0.368,0.333,0.195,0.166,east,7.9,Yes
2017/03/14,08:40,0.390,0.241,0.398,0.369,0.330,0.194,0.165,east,7.3,Yes
2017/03/14,08:50,0.389,0.242,0.399,0.366,0.331,0.194,0.165,east,9.1,Yes
2017/03/14,09:00,0.390,0.243,0.399,0.366,0.332,0.194,0.165,east,8.4,Yes
2017/03/14,09:10,0.390,0.242,0.398,0.368,0.331,0.196,0.164,east,5.8,Yes
2017/03/14,09:20,0.389,0.243,0.396,0.366,0.331,0.195,0.165,east,7.5,Yes
2017/03/14,09:30,0.390,0.243,0.399,0.367,0.332,0.194,0.165,east,7.0,Yes
2017/03/14,09:40,0.389,0.244,0.396,0.367,0.330,0.193,0.165,east,7.9,Yes
2017/03/14,09:50,0.388,0.242,0.395,0.367,0.330,0.194,0.165,east,7.8,Yes
2017/03/14,10:00,0.388,0.242,0.397,0.365,0.331,0.194,0.164,east,9.8,Yes
2017/03/14,10:10,0.388,0.242,0.397,0.367,0.332,0.194,0.164,east,10.7,Yes
2017/03/14,10:20,0.387,0.241,0.395,0.364,0.331,0.194,0.164,east,9.5,Yes
2017/03/14,10:30,0.390,0.239,0.395,0.364,0.331,0.193,0.164,east,10.9,Yes
2017/03/14,10:40,0.390,0.241,0.395,0.367,0.331,0.193,0.164,east,9.1,No
2017/03/14,10:50,0.388,0.241,0.394,0.365,0.330,0.193,0.163,east,8.9,Yes
2017/03/14,11:00,0.388,0.241,0.395,0.363,0.329,0.193,0.163,east,9.3,Yes
2017/03/14,11:10,0.388,0.241,0.394,0.365,0.333,0.193,0.163,east,9.5,Yes
2017/03/14,11:20,0.387,0.240,0.393,0.364,0.331,0.192,0.163,east,9.1,Yes
2017/03/14,11:30,0.388,0.240,0.395,0.365,0.329,0.193,0.162,east,11.6,Yes
2017/03/14,11:40,0.389,0.240,0.394,0.365,0.331,0.193,0.163,east,11.6,Yes
2017/03/14,11:50,0.388,0.239,0.395,0.364,0.331,0.193,0.164,east,14.3,Yes
2017/03/14,12:00,0.388,0.241,0.395,0.364,0.329,0.193,0.164,east,12.6,Yes
2017/03/14,12:10,0.387,0.239,0.396,0.364,0.330,0.193,0.164,east,13.3,Yes
2017/03/14,12:20,0.387,0.241,0.393,0.365,0.330,0.193,0.164,east-northeast,11.5,Yes
2017/03/14,12:30,0.386,0.242,0.395,0.365,0.329,0.194,0.164,east-northeast,9.4,Yes
2017/03/14,12:40,0.385,0.241,0.394,0.364,0.331,0.193,0.165,east-northeast,9.8,Yes
2017/03/14,12:50,0.387,0.241,0.394,0.365,0.331,0.194,0.165,east-northeast,8.4,Yes
2017/03/14,13:00,0.386,0.243,0.392,0.363,0.330,0.195,0.165,east-northeast,10.2,Yes
2017/03/14,13:10,0.387,0.243,0.393,0.362,0.330,0.195,0.166,east,10.1,Yes
2017/03/14,13:20,0.388,0.244,0.394,0.364,0.332,0.196,0.167,east,10.0,Yes
2017/03/14,13:30,0.389,0.242,0.392,0.364,0.331,0.195,0.166,east,9.5,Yes
2017/03/14,13:40,0.387,0.242,0.392,0.363,0.331,0.195,0.166,east,10.7,Yes
2017/03/14,13:50,0.386,0.242,0.393,0.362,0.330,0.195,0.165,east,10.8,No
2017/03/14,14:00,0.387,0.240,0.392,0.363,0.329,0.194,0.164,east,11.7,Yes
2017/03/14,14:10,0.386,0.239,0.391,0.363,0.330,0.192,0.163,east,12.5,Yes
2017/03/14,14:20,0.384,0.240,0.389,0.362,0.329,0.192,0.163,east-northeast,12.3,Yes
2017/03/14,14:30,0.385,0.241,0.391,0.363,0.330,0.193,0.164,east,11.7,Yes
2017/03/14,14:40,0.384,0.240,0.389,0.363,0.331,0.192,0.164,east-northeast,11.1,Yes
2017/03/14,14:50,0.386,0.241,0.391,0.362,0.329,0.193,0.163,east-northeast,10.7,Yes
2017/03/14,15:00,0.386,0.240,0.392,0.361,0.328,0.193,0.164,east-northeast,12.1,Yes
2017/03/14,15:10,0.385,0.240,0.391,0.361,0.329,0.192,0.163,east-northeast,10.9,Yes
2017/03/14,15:20,0.386,0.240,0.390,0.362,0.330,0.193,0.163,east-northeast,10.9,Yes
2017/03/14,15:30,0.385,0.239,0.389,0.361,0.329,0.192,0.162,east-northeast,8.1,Yes
2017/03/14,15:40,0.385,0.239,0.390,0.361,0.330,0.192,0.163,northeast,9.0,Yes
2017/03/14,15:50,0.385,0.240,0.390,0.362,0.330,0.193,0.161,northeast,9.2,Yes
2017/03/14,16:00,0.384,0.238,0.389,0.359,0.328,0.192,0.162,northeast,7.4,Yes
2017/03/14,16:10,0.384,0.239,0.389,0.360,0.329,0.192,0.163,northeast,6.3,Yes
2017/03/14,16:20,0.385,0.238,0.389,0.360,0.331,0.191,0.162,north-northeast,5.0,Yes
2017/03/14,16:30,0.386,0.240,0.389,0.360,0.329,0.191,0.163,north-northeast,7.2,Yes
2017/03/14,16:40,0.384,0.240,0.387,0.359,0.327,0.192,0.162,northeast,8.1,Yes
2017/03/14,16:50,0.381,0.239,0.384,0.357,0.326,0.192,0.162,east-northeast,5.0,Yes
2017/03/14,17:00,0.381,0.239,0.386,0.356,0.329,0.192,0.162,north-northeast,5.6,Yes
2017/03/14,17:10,0.382,0.238,0.382,0.354,0.327,0.193,0.162,northeast,9.6,Yes
2017/03/14,17:20,0.380,0.237,0.383,0.354,0.327,0.191,0.162,south-southeast,7.8,Yes
2017/03/14,17:30,0.381,0.238,0.383,0.354,0.328,0.191,0.163,south,9.2,Yes
2017/03/14,17:40,0.380,0.239,0.382,0.353,0.328,0.192,0.162,east,8.5,Yes
2017/03/14,17:50,0.380,0.238,0.382,0.353,0.327,0.191,0.162,northeast,5.0,Yes
2017/03/14,18:00,0.379,0.238,0.383,0.354,0.328,0.189,0.162,north-northeast,7.7,Yes
2017/03/14,18:10,0.380,0.239,0.383,0.353,0.328,0.191,0.162,northeast,8.5,Yes
2017/03/14,18:20,0.380,0.238,0.384,0.354,0.329,0.190,0.162,north-northeast,9.5,Yes
2017/03/14,18:30,0.381,0.236,0.383,0.353,0.327,0.189,0.162,north-northeast,8.1,Yes
2017/03/14,18:40,0.379,0.237,0.383,0.354,0.328,0.188,0.161,north-northeast,9.6,Yes
2017/03/14,18:50,0.379,0.236,0.384,0.353,0.327,0.188,0.160,north-northeast,7.3,Yes
2017/03/14,19:00,0.378,0.236,0.384,0.353,0.327,0.188,0.160,north-northeast,7.6,Yes
2017/03/14,19:10,0.379,0.235,0.383,0.353,0.327,0.188,0.160,north-northeast,7.8,Yes
2017/03/14,19:20,0.377,0.235,0.382,0.353,0.326,0.189,0.160,north-northeast,7.8,Yes
2017/03/14,19:30,0.378,0.233,0.382,0.351,0.327,0.187,0.159,north,8.7,Yes
2017/03/14,19:40,0.379,0.234,0.383,0.353,0.326,0.188,0.159,north,9.0,Yes
2017/03/14,19:50,0.376,0.235,0.382,0.352,0.327,0.187,0.159,north,7.9,Yes
2017/03/14,20:00,0.377,0.236,0.381,0.351,0.326,0.187,0.159,north,7.5,Yes
2017/03/14,20:10,0.377,0.235,0.380,0.350,0.326,0.188,0.159,north,8.9,Yes
2017/03/14,20:20,0.376,0.235,0.383,0.352,0.327,0.188,0.159,north,9.5,Yes
2017/03/14,20:30,0.380,0.235,0.384,0.353,0.327,0.188,0.160,north,10.0,Yes
2017/03/14,20:40,0.378,0.235,0.382,0.352,0.326,0.187,0.160,north,7.8,Yes
2017/03/14,20:50,0.377,0.236,0.382,0.353,0.326,0.188,0.160,north-northwest,8.1,Yes
2017/03/14,21:00,0.377,0.236,0.384,0.354,0.328,0.189,0.160,north,7.7,Yes
2017/03/14,21:10,0.378,0.236,0.383,0.354,0.326,0.188,0.160,north,9.9,Yes
2017/03/14,21:20,0.377,0.235,0.384,0.354,0.328,0.188,0.159,north,9.1,Yes
2017/03/14,21:30,0.377,0.236,0.383,0.353,0.327,0.188,0.160,north-northwest,9.7,Yes
2017/03/14,21:40,0.378,0.235,0.382,0.353,0.326,0.188,0.160,north-northwest,9.5,Yes
2017/03/14,21:50,0.378,0.236,0.383,0.352,0.325,0.187,0.158,north-northwest,9.2,Yes
2017/03/14,22:00,0.377,0.236,0.384,0.352,0.326,0.188,0.159,north-northwest,10.7,Yes
2017/03/14,22:10,0.378,0.236,0.383,0.352,0.326,0.187,0.159,north-northwest,8.7,Yes
2017/03/14,22:20,0.377,0.236,0.382,0.352,0.327,0.186,0.158,north-northwest,8.9,Yes
2017/03/14,22:30,0.376,0.235,0.383,0.352,0.326,0.188,0.158,north-northwest,9.5,Yes
2017/03/14,22:40,0.376,0.235,0.382,0.353,0.327,0.187,0.158,north-northwest,10.2,Yes
2017/03/14,22:50,0.378,0.234,0.382,0.352,0.325,0.186,0.158,north-northwest,10.7,Yes
2017/03/14,23:00,0.375,0.234,0.382,0.352,0.325,0.185,0.159,north-northwest,10.8,Yes
2017/03/14,23:10,0.375,0.234,0.383,0.351,0.326,0.186,0.158,north-northwest,11.1,Yes
2017/03/14,23:20,0.376,0.234,0.382,0.351,0.325,0.185,0.157,north-northwest,8.9,Yes
2017/03/14,23:30,0.376,0.232,0.383,0.352,0.326,0.186,0.158,north-northwest,9.7,Yes
2017/03/14,23:40,0.375,0.234,0.382,0.351,0.325,0.187,0.158,north,9.8,Yes
2017/03/14,23:50,0.376,0.233,0.381,0.351,0.324,0.188,0.157,north,10.9,Yes
